Location: McFarlands Corners
(41.4117°N, 81.3382°W)
Time: 17:32:20
(UTC+00:00)

SR - Pass Details

Date: 25 February 2026
Orbit: 572 x 849 km, 66.7° (Epoch: 12 March)

Event Time Altitude Azimuth Distance (km) Brightness Sun altitude
Rises 16:43:38 0° 331° (NNW) 3,116 ? 38.1°
Reaches altitude 10° 16:45:55 10° 334° (NNW) 2,236 ? 38.3°
Maximum altitude 16:51:04 73° 59° (ENE) 809 ? 38.5°
Drops below altitude 10° 16:56:34 10° 144° (SE) 2,389 ? 38.8°
Sets 16:59:05 0° 147° (SSE) 3,346 ? 38.9°
